CW9832 Weather Reports


time (UTC)temp
C
wind
direction
speed
KPH
gust
KPH
rain 1hr
cm
rain 24hr
cm
rain mn
cm
humidity
%
barometer
mb
20260506015831 20 184 0.0 6.4 0.00 0.00 0.00 68 1013.8
20260506014828 20 184 0.0 0.0 0.00 0.00 0.00 67 1013.8
20260506013845 20 186 0.0 3.2 0.00 0.00 0.00 64 1013.7
20260506012857 20 185 0.0 0.0 0.00 0.00 0.00 63 1013.6
20260506011848 20 185 0.0 0.0 0.00 0.00 0.00 64 1013.4
20260506010827 20 186 0.0 0.0 0.00 0.00 0.00 60 1013.2
20260506005836 21 186 0.0 0.0 0.00 0.00 0.00 59 1013.0
20260506004846 21 186 0.0 0.0 0.00 0.00 0.00 58 1012.9
20260506002806 22 186 0.0 0.0 0.00 0.00 0.00 58 1012.4
20260506001801 22 186 0.0 0.0 0.00 0.00 0.00 56 1012.2
20260506000757 23 186 0.0 0.0 0.00 0.00 0.00 54 1012.3
20260505235749 23 186 0.0 0.0 0.00 0.00 0.00 52 1012.2
20260505234804 24 186 0.0 1.6 0.00 0.00 0.00 54 1012.2
20260505233752 25 186 0.0 0.0 0.00 0.00 0.00 49 1012.2
20260505232747 25 186 0.0 4.8 0.00 0.00 0.00 49 1012.3
20260505230558 25 172 1.6 16.1 0.00 0.00 0.00 48 1012.4
20260505224420 26 181 1.6 14.5 0.00 0.00 0.00 49 1012.6
20260505223400 26 192 4.8 19.3 0.00 0.00 0.00 45 1012.7
20260505222405 26 219 1.6 19.3 0.00 0.00 0.00 48 1012.6
20260505221409 26 162 1.6 16.1 0.00 0.00 0.00 45 1012.6
20260505220424 26 169 1.6 16.1 0.00 0.00 0.00 42 1012.6
20260505215401 27 184 3.2 14.5 0.00 0.00 0.00 44 1012.6
20260505211014 27 171 1.6 16.1 0.00 0.00 0.00 42 1012.8
20260505210029 27 137 3.2 16.1 0.00 0.00 0.00 40 1012.7
20260505205038 28 184 8.0 24.1 0.00 0.00 0.00 39 1012.9
20260505202905 28 181 1.6 16.1 0.00 0.00 0.00 39 1013.0
20260505195626 28 190 3.2 22.5 0.00 0.00 0.00 42 1013.5
20260505194559 28 205 0.0 11.3 0.00 0.00 0.00 45 1013.6
20260505193557 28 175 3.2 24.1 0.00 0.00 0.00 40 1013.8
20260505192538 28 193 3.2 24.1 0.00 0.00 0.00 40 1013.9
20260505191532 28 193 4.8 17.7 0.00 0.00 0.00 42 1014.1
20260505190532 28 286 4.8 17.7 0.00 0.00 0.00 41 1014.3
20260505185556 28 296 3.2 20.9 0.00 0.00 0.00 46 1014.5
20260505184551 27 202 4.8 20.9 0.00 0.00 0.00 43 1014.8
20260505183604 27 191 3.2 9.7 0.00 0.00 0.00 43 1014.9
20260505180344 27 155 3.2 22.5 0.00 0.00 0.00 43 1015.3
20260505175409 27 188 3.2 17.7 0.00 0.00 0.00 46 1015.4
20260505174342 26 195 1.6 16.1 0.00 0.00 0.00 46 1015.5
20260505173338 26 217 3.2 11.3 0.00 0.00 0.00 48 1015.5
20260505172321 26 208 6.4 24.1 0.00 0.00 0.00 44 1015.5
20260505171308 26 198 0.0 12.9 0.00 0.00 0.00 50 1015.5
20260505170330 26 203 1.6 24.1 0.00 0.00 0.00 50 1015.5
20260505165354 26 182 3.2 24.1 0.00 0.00 0.00 48 1015.7
20260505164328 26 133 3.2 19.3 0.00 0.00 0.00 51 1015.7
20260505152832 25 179 0.0 20.9 0.00 0.00 0.00 58 1016.5
20260505151759 25 173 3.2 20.9 0.00 0.00 0.00 59 1016.6
20260505150805 24 170 1.6 11.3 0.00 0.00 0.00 61 1016.5
20260505124936 17 196 0.0 6.4 0.00 0.00 0.00 81 1016.3
20260505123941 17 224 0.0 3.2 0.00 0.00 0.00 84 1016.2
20260505122944 16 206 0.0 0.0 0.00 0.00 0.00 86 1016.2
20260505121922 15 206 0.0 0.0 0.00 0.00 0.00 90 1016.3
20260505120928 14 206 0.0 0.0 0.00 0.00 0.00 91 1016.2
20260505115930 13 206 0.0 0.0 0.00 0.00 0.00 91 1016.0
20260505114859 12 206 0.0 0.0 0.00 0.00 0.00 91 1015.8
20260505112656 11 206 0.0 0.0 0.00 0.00 0.00 90 1015.8
20260505111717 11 206 0.0 0.0 0.00 0.00 0.00 90 1015.9
20260505101244 11 206 0.0 0.0 0.00 0.00 0.00 89 1015.2
20260505095206 11 206 0.0 0.0 0.00 0.00 0.00 88 1015.2
20260505094154 11 206 0.0 0.0 0.00 0.00 0.00 87 1015.3
20260505093212 11 206 0.0 0.0 0.00 0.00 0.00 87 1015.3
20260505092158 12 206 0.0 0.0 0.00 0.00 0.00 87 1015.2
20260505091202 12 206 0.0 0.0 0.00 0.00 0.00 86 1015.3
20260505084953 12 206 0.0 0.0 0.00 0.00 0.00 85 1015.1
20260505083925 12 206 0.0 0.0 0.00 0.00 0.00 85 1015.0
20260505082851 13 206 0.0 0.0 0.00 0.00 0.00 85 1014.9
20260505075626 13 206 0.0 0.0 0.00 0.00 0.00 84 1014.8
20260505074558 13 208 0.0 0.0 0.00 0.00 0.00 84 1014.8
20260505073609 13 208 0.0 0.0 0.00 0.00 0.00 84 1014.7
20260505072547 13 193 0.0 0.0 0.00 0.00 0.00 84 1014.6
20260505071517 13 193 0.0 0.0 0.00 0.00 0.00 83 1014.7
20260505070503 13 193 0.0 0.0 0.00 0.00 0.00 83 1014.7
20260505065434 13 193 0.0 0.0 0.00 0.00 0.00 82 1014.7
20260505064452 13 193 0.0 0.0 0.00 0.00 0.00 82 1014.8
20260505063443 13 193 0.0 0.0 0.00 0.00 0.00 82 1014.9
20260505062411 14 193 0.0 0.0 0.00 0.00 0.00 81 1015.0
20260505061425 14 193 0.0 0.0 0.00 0.00 0.00 80 1015.1
20260505060402 14 193 0.0 0.0 0.00 0.00 0.00 79 1015.1
20260505055352 14 194 0.0 0.0 0.00 0.00 0.00 78 1015.0
20260505054412 14 194 0.0 0.0 0.00 0.00 0.00 77 1015.1
20260505053428 15 193 0.0 0.0 0.00 0.00 0.00 76 1015.2
20260505052353 15 194 0.0 0.0 0.00 0.00 0.00 76 1015.2
20260505050150 15 192 0.0 3.2 0.00 0.00 0.00 75 1015.3
20260505041018 16 194 0.0 9.7 0.00 0.00 0.00 72 1015.5
20260505040009 16 223 0.0 0.0 0.00 0.00 0.00 71 1015.4
20260505034947 16 188 0.0 0.0 0.00 0.00 0.00 71 1015.5
20260505033939 16 195 0.0 3.2 0.00 0.00 0.00 71 1015.4
20260505031758 16 183 0.0 0.0 0.00 0.00 0.00 70 1015.4
20260505025641 16 200 0.0 8.0 0.00 0.00 0.00 70 1015.6
20260505024635 16 178 0.0 8.0 0.00 0.00 0.00 69 1015.4
20260505023646 17 177 0.0 0.0 0.00 0.00 0.00 69 1015.4
20260505022624 17 203 0.0 4.8 0.00 0.00 0.00 68 1015.3
20260505021610 17 184 0.0 14.5 0.00 0.00 0.00 67 1015.1
20260505020629 17 185 0.0 1.6 0.00 0.00 0.00 66 1015.1